Year,Month,Day,Hour,Minute,Value (Times are PST for temperature in C)
2008,09,25,00,00,10.90
2008,09,25,00,01,10.90
2008,09,25,00,02,10.90
2008,09,25,00,03,10.90
2008,09,25,00,04,10.90
2008,09,25,00,05,10.90
2008,09,25,00,06,10.90
2008,09,25,00,07,10.90
2008,09,25,00,08,10.80
2008,09,25,00,09,10.80
2008,09,25,00,10,10.80
2008,09,25,00,11,10.80
2008,09,25,00,12,10.80
2008,09,25,00,13,10.80
2008,09,25,00,14,10.80
2008,09,25,00,15,10.80
2008,09,25,00,16,10.70
2008,09,25,00,17,10.70
2008,09,25,00,18,10.70
2008,09,25,00,19,10.70
2008,09,25,00,20,10.70
2008,09,25,00,21,10.70
2008,09,25,00,22,10.70
2008,09,25,00,23,10.70
2008,09,25,00,24,10.60
2008,09,25,00,25,10.60
2008,09,25,00,26,10.60
2008,09,25,00,27,10.60
2008,09,25,00,28,10.60
2008,09,25,00,29,10.60
2008,09,25,00,30,10.60
2008,09,25,00,31,10.60
2008,09,25,00,32,10.60
2008,09,25,00,33,10.60
2008,09,25,00,34,10.60
2008,09,25,00,35,10.60
2008,09,25,00,36,10.60
2008,09,25,00,37,10.60
2008,09,25,00,38,10.60
2008,09,25,00,39,10.60
2008,09,25,00,40,10.60
2008,09,25,00,41,10.60
2008,09,25,00,42,10.50
2008,09,25,00,43,10.40
2008,09,25,00,44,10.40
2008,09,25,00,45,10.40
2008,09,25,00,46,10.40
2008,09,25,00,47,10.40
2008,09,25,00,48,10.40
2008,09,25,00,49,10.40
2008,09,25,00,50,10.40
2008,09,25,00,51,10.40
2008,09,25,00,52,10.40
2008,09,25,00,53,10.30
2008,09,25,00,54,10.30
2008,09,25,00,55,10.30
2008,09,25,00,56,10.30
2008,09,25,00,57,10.30
2008,09,25,00,58,10.30
2008,09,25,00,59,10.20
2008,09,25,01,00,10.20
2008,09,25,01,01,10.20
2008,09,25,01,02,10.20
2008,09,25,01,03,10.20
2008,09,25,01,04,10.20
2008,09,25,01,05,10.20
2008,09,25,01,06,10.20
2008,09,25,01,07,10.10
2008,09,25,01,08,10.10
2008,09,25,01,09,10.10
2008,09,25,01,10,10.10
2008,09,25,01,11,10.10
2008,09,25,01,12,10.10
2008,09,25,01,13,10.10
2008,09,25,01,14,10.10
2008,09,25,01,15,10.10
2008,09,25,01,16,10.10
2008,09,25,01,17,10.10
2008,09,25,01,18,10.10
2008,09,25,01,19,10.00
2008,09,25,01,20,9.90
2008,09,25,01,21,9.90
2008,09,25,01,22,9.90
2008,09,25,01,23,9.90
2008,09,25,01,24,9.90
2008,09,25,01,25,9.90
2008,09,25,01,26,9.90
2008,09,25,01,27,9.90
2008,09,25,01,28,9.90
2008,09,25,01,29,9.90
2008,09,25,01,30,9.90
2008,09,25,01,31,9.90
2008,09,25,01,32,9.80
2008,09,25,01,33,9.80
2008,09,25,01,34,9.80
2008,09,25,01,35,9.80
2008,09,25,01,36,9.80
2008,09,25,01,37,9.70
2008,09,25,01,38,9.70
2008,09,25,01,39,9.70
2008,09,25,01,40,9.70
2008,09,25,01,41,9.70
2008,09,25,01,42,9.70
2008,09,25,01,43,9.70
2008,09,25,01,44,9.70
2008,09,25,01,45,9.70
2008,09,25,01,46,9.60
2008,09,25,01,47,9.60
2008,09,25,01,48,9.60
2008,09,25,01,49,9.60
2008,09,25,01,50,9.60
2008,09,25,01,51,9.60
2008,09,25,01,52,9.60
2008,09,25,01,53,9.60
2008,09,25,01,54,9.60
2008,09,25,01,55,9.60
2008,09,25,01,56,9.60
2008,09,25,01,57,9.60
2008,09,25,01,58,9.60
2008,09,25,01,59,9.60
2008,09,25,02,00,9.60
2008,09,25,02,01,9.60
2008,09,25,02,02,9.60
2008,09,25,02,03,9.50
2008,09,25,02,04,9.40
2008,09,25,02,05,9.30
2008,09,25,02,06,9.20
2008,09,25,02,07,9.20
2008,09,25,02,08,9.10
2008,09,25,02,09,9.00
2008,09,25,02,10,9.00
2008,09,25,02,11,8.90
2008,09,25,02,12,8.90
2008,09,25,02,13,8.80
2008,09,25,02,14,8.70
2008,09,25,02,15,8.70
2008,09,25,02,16,8.60
2008,09,25,02,17,8.50
2008,09,25,02,18,8.40
2008,09,25,02,19,8.40
2008,09,25,02,20,8.30
2008,09,25,02,21,8.30
2008,09,25,02,22,8.30
2008,09,25,02,23,8.30
2008,09,25,02,24,8.40
2008,09,25,02,25,8.50
2008,09,25,02,26,8.50
2008,09,25,02,27,8.60
2008,09,25,02,28,8.70
2008,09,25,02,29,8.70
2008,09,25,02,30,8.70
2008,09,25,02,31,8.60
2008,09,25,02,32,8.60
2008,09,25,02,33,8.60
2008,09,25,02,34,8.60
2008,09,25,02,35,8.60
2008,09,25,02,36,8.70
2008,09,25,02,37,8.70
2008,09,25,02,38,8.70
2008,09,25,02,39,8.80
2008,09,25,02,40,8.80
2008,09,25,02,41,8.90
2008,09,25,02,42,8.90
2008,09,25,02,43,8.80
2008,09,25,02,44,8.80
2008,09,25,02,45,8.80
2008,09,25,02,46,8.70
2008,09,25,02,47,8.70
2008,09,25,02,48,8.70
2008,09,25,02,49,8.70
2008,09,25,02,50,8.80
2008,09,25,02,51,8.80
2008,09,25,02,52,8.90
2008,09,25,02,53,8.90
2008,09,25,02,54,8.90
2008,09,25,02,55,9.00
2008,09,25,02,56,9.00
2008,09,25,02,57,9.00
2008,09,25,02,58,9.10
2008,09,25,02,59,9.10
2008,09,25,03,00,9.20
2008,09,25,03,01,9.20
2008,09,25,03,02,9.20
2008,09,25,03,03,9.20
2008,09,25,03,04,9.10
2008,09,25,03,05,9.10
2008,09,25,03,06,9.00
2008,09,25,03,07,8.90
2008,09,25,03,08,8.90
2008,09,25,03,09,8.80
2008,09,25,03,10,8.80
2008,09,25,03,11,8.80
2008,09,25,03,12,8.90
2008,09,25,03,13,8.90
2008,09,25,03,14,8.90
2008,09,25,03,15,8.90
2008,09,25,03,16,8.90
2008,09,25,03,17,8.90
2008,09,25,03,18,8.90
2008,09,25,03,19,8.90
2008,09,25,03,20,8.90
2008,09,25,03,21,8.80
2008,09,25,03,22,8.80
2008,09,25,03,23,8.80
2008,09,25,03,24,8.80
2008,09,25,03,25,8.80
2008,09,25,03,26,8.80
2008,09,25,03,27,8.90
2008,09,25,03,28,8.90
2008,09,25,03,29,8.90
2008,09,25,03,30,9.00
2008,09,25,03,31,9.00
2008,09,25,03,32,9.10
2008,09,25,03,33,9.10
2008,09,25,03,34,9.00
2008,09,25,03,35,9.00
2008,09,25,03,36,8.90
2008,09,25,03,37,8.90
2008,09,25,03,38,8.90
2008,09,25,03,39,9.00
2008,09,25,03,40,9.00
2008,09,25,03,41,9.00
2008,09,25,03,42,9.00
2008,09,25,03,43,9.00
2008,09,25,03,44,9.00
2008,09,25,03,45,9.10
2008,09,25,03,46,9.00
2008,09,25,03,47,9.00
2008,09,25,03,48,8.90
2008,09,25,03,49,8.90
2008,09,25,03,50,8.80
2008,09,25,03,51,8.80
2008,09,25,03,52,8.80
2008,09,25,03,53,8.80
2008,09,25,03,54,8.80
2008,09,25,03,55,8.80
2008,09,25,03,56,8.80
2008,09,25,03,57,8.80
2008,09,25,03,58,8.80
2008,09,25,03,59,8.80
2008,09,25,04,00,8.80
2008,09,25,04,01,8.70
2008,09,25,04,02,8.60
2008,09,25,04,03,8.50
2008,09,25,04,04,8.40
2008,09,25,04,05,8.30
2008,09,25,04,06,8.40
2008,09,25,04,07,8.50
2008,09,25,04,08,8.60
2008,09,25,04,09,8.70
2008,09,25,04,10,8.70
2008,09,25,04,11,8.70
2008,09,25,04,12,8.70
2008,09,25,04,13,8.50
2008,09,25,04,14,8.40
2008,09,25,04,15,8.30
2008,09,25,04,16,8.30
2008,09,25,04,17,8.20
2008,09,25,04,18,8.20
2008,09,25,04,19,8.20
2008,09,25,04,20,8.20
2008,09,25,04,21,8.20
2008,09,25,04,22,8.10
2008,09,25,04,23,8.10
2008,09,25,04,24,8.10
2008,09,25,04,25,8.10
2008,09,25,04,26,8.10
2008,09,25,04,27,8.10
2008,09,25,04,28,8.10
2008,09,25,04,29,8.10
2008,09,25,04,30,8.20
2008,09,25,04,31,8.20
2008,09,25,04,32,8.20
2008,09,25,04,33,8.30
2008,09,25,04,34,8.40
2008,09,25,04,35,8.40
2008,09,25,04,36,8.50
2008,09,25,04,37,8.60
2008,09,25,04,38,8.70
2008,09,25,04,39,8.70
2008,09,25,04,40,8.70
2008,09,25,04,41,8.70
2008,09,25,04,42,8.70
2008,09,25,04,43,8.70
2008,09,25,04,44,8.70
2008,09,25,04,45,8.70
2008,09,25,04,46,8.70
2008,09,25,04,47,8.60
2008,09,25,04,48,8.50
2008,09,25,04,49,8.40
2008,09,25,04,50,8.40
2008,09,25,04,51,8.30
2008,09,25,04,52,8.30
2008,09,25,04,53,8.30
2008,09,25,04,54,8.20
2008,09,25,04,55,8.20
2008,09,25,04,56,8.20
2008,09,25,04,57,8.20
2008,09,25,04,58,8.20
2008,09,25,04,59,8.20
2008,09,25,05,00,8.20
2008,09,25,05,01,8.30
2008,09,25,05,02,8.30
2008,09,25,05,03,8.30
2008,09,25,05,04,8.30
2008,09,25,05,05,8.20
2008,09,25,05,06,8.20
2008,09,25,05,07,8.20
2008,09,25,05,08,8.20
2008,09,25,05,09,8.20
2008,09,25,05,10,8.20
2008,09,25,05,11,8.20
2008,09,25,05,12,8.30
2008,09,25,05,13,8.30
2008,09,25,05,14,8.40
2008,09,25,05,15,8.40
2008,09,25,05,16,8.40
2008,09,25,05,17,8.50
2008,09,25,05,18,8.50
2008,09,25,05,19,8.60
2008,09,25,05,20,8.60
2008,09,25,05,21,8.60
2008,09,25,05,22,8.60
2008,09,25,05,23,8.60
2008,09,25,05,24,8.60
2008,09,25,05,25,8.60
2008,09,25,05,26,8.60
2008,09,25,05,27,8.70
2008,09,25,05,28,8.70
2008,09,25,05,29,8.70
2008,09,25,05,30,8.70
2008,09,25,05,31,8.70
2008,09,25,05,32,8.70
2008,09,25,05,33,8.70
2008,09,25,05,34,8.70
2008,09,25,05,35,8.70
2008,09,25,05,36,8.70
2008,09,25,05,37,8.70
2008,09,25,05,38,8.70
2008,09,25,05,39,8.70
2008,09,25,05,40,8.70
2008,09,25,05,41,8.70
2008,09,25,05,42,8.70
2008,09,25,05,43,8.70
2008,09,25,05,44,8.70
2008,09,25,05,45,8.70
2008,09,25,05,46,8.80
2008,09,25,05,47,8.80
2008,09,25,05,48,8.80
2008,09,25,05,49,8.90
2008,09,25,05,50,8.90
2008,09,25,05,51,8.90
2008,09,25,05,52,8.90
2008,09,25,05,53,8.90
2008,09,25,05,54,8.90
2008,09,25,05,55,8.90
2008,09,25,05,56,8.90
2008,09,25,05,57,8.90
2008,09,25,05,58,9.00
2008,09,25,05,59,9.00
2008,09,25,06,00,9.00
2008,09,25,06,01,9.00
2008,09,25,06,02,9.00
2008,09,25,06,03,9.00
2008,09,25,06,04,9.00
2008,09,25,06,05,9.00
2008,09,25,06,06,9.00
2008,09,25,06,07,9.00
2008,09,25,06,08,9.00
2008,09,25,06,09,9.00
2008,09,25,06,10,9.00
2008,09,25,06,11,9.00
2008,09,25,06,12,9.00
2008,09,25,06,13,9.00
2008,09,25,06,14,9.00
2008,09,25,06,15,9.00
2008,09,25,06,16,9.00
2008,09,25,06,17,9.00
2008,09,25,06,18,9.00
2008,09,25,06,19,9.00
2008,09,25,06,20,9.00
2008,09,25,06,21,9.00
2008,09,25,06,22,9.00
2008,09,25,06,23,9.00
2008,09,25,06,24,9.10
2008,09,25,06,25,9.10
2008,09,25,06,26,9.10
2008,09,25,06,27,9.10
2008,09,25,06,28,9.20
2008,09,25,06,29,9.20
2008,09,25,06,30,9.20
2008,09,25,06,31,9.20
2008,09,25,06,32,9.20
2008,09,25,06,33,9.30
2008,09,25,06,34,9.30
2008,09,25,06,35,9.30
2008,09,25,06,36,9.30
2008,09,25,06,37,9.30
2008,09,25,06,38,9.40
2008,09,25,06,39,9.40
2008,09,25,06,40,9.40
2008,09,25,06,41,9.40
2008,09,25,06,42,9.50
2008,09,25,06,43,9.50
2008,09,25,06,44,9.50
2008,09,25,06,45,9.50
2008,09,25,06,46,9.50
2008,09,25,06,47,9.50
2008,09,25,06,48,9.60
2008,09,25,06,49,9.60
2008,09,25,06,50,9.60
2008,09,25,06,51,9.60
2008,09,25,06,52,9.60
2008,09,25,06,53,9.70
2008,09,25,06,54,9.70
2008,09,25,06,55,9.70
2008,09,25,06,56,9.70
2008,09,25,06,57,9.70
2008,09,25,06,58,9.70
2008,09,25,06,59,9.70
2008,09,25,07,00,9.70
2008,09,25,07,01,9.70
2008,09,25,07,02,9.80
2008,09,25,07,03,9.80
2008,09,25,07,04,9.80
2008,09,25,07,05,9.80
2008,09,25,07,06,9.80
2008,09,25,07,07,9.80
2008,09,25,07,08,9.80
2008,09,25,07,09,9.90
2008,09,25,07,10,9.90
2008,09,25,07,11,9.90
2008,09,25,07,12,9.90
2008,09,25,07,13,9.90
2008,09,25,07,14,9.90
2008,09,25,07,15,9.90
2008,09,25,07,16,9.90
2008,09,25,07,17,9.90
2008,09,25,07,18,9.90
2008,09,25,07,19,9.90
2008,09,25,07,20,9.90
2008,09,25,07,21,9.90
2008,09,25,07,22,9.90
2008,09,25,07,23,9.90
2008,09,25,07,24,9.90
2008,09,25,07,25,9.90
2008,09,25,07,26,10.00
2008,09,25,07,27,10.10
2008,09,25,07,28,10.10
2008,09,25,07,29,10.10
2008,09,25,07,30,10.10
2008,09,25,07,31,10.10
2008,09,25,07,32,10.10
2008,09,25,07,33,10.20
2008,09,25,07,34,10.20
2008,09,25,07,35,10.20
2008,09,25,07,36,10.20
2008,09,25,07,37,10.20
2008,09,25,07,38,10.20
2008,09,25,07,39,10.20
2008,09,25,07,40,10.20
2008,09,25,07,41,10.20
2008,09,25,07,42,10.20
2008,09,25,07,43,10.20
2008,09,25,07,44,10.20
2008,09,25,07,45,10.20
2008,09,25,07,46,10.20
2008,09,25,07,47,10.20
2008,09,25,07,48,10.20
2008,09,25,07,49,10.20
2008,09,25,07,50,10.20
2008,09,25,07,51,10.20
2008,09,25,07,52,10.20
2008,09,25,07,53,10.20
2008,09,25,07,54,10.20
2008,09,25,07,55,10.20
2008,09,25,07,56,10.20
2008,09,25,07,57,10.20
2008,09,25,07,58,10.20
2008,09,25,07,59,10.20
2008,09,25,08,00,10.20
2008,09,25,08,01,10.20
2008,09,25,08,02,10.20
2008,09,25,08,03,10.20
2008,09,25,08,04,10.20
2008,09,25,08,05,10.20
2008,09,25,08,06,10.20
2008,09,25,08,07,10.20
2008,09,25,08,08,10.30
2008,09,25,08,09,10.30
2008,09,25,08,10,10.30
2008,09,25,08,11,10.30
2008,09,25,08,12,10.30
2008,09,25,08,13,10.40
2008,09,25,08,14,10.40
2008,09,25,08,15,10.40
2008,09,25,08,16,10.40
2008,09,25,08,17,10.40
2008,09,25,08,18,10.40
2008,09,25,08,19,10.40
2008,09,25,08,20,10.40
2008,09,25,08,21,10.40
2008,09,25,08,22,10.50
2008,09,25,08,23,10.60
2008,09,25,08,24,10.60
2008,09,25,08,25,10.60
2008,09,25,08,26,10.60
2008,09,25,08,27,10.60
2008,09,25,08,28,10.60
2008,09,25,08,29,10.70
2008,09,25,08,30,10.70
2008,09,25,08,31,10.70
2008,09,25,08,32,10.70
2008,09,25,08,33,10.70
2008,09,25,08,34,10.80
2008,09,25,08,35,10.80
2008,09,25,08,36,10.90
2008,09,25,08,37,10.90
2008,09,25,08,38,10.90
2008,09,25,08,39,10.90
2008,09,25,08,40,10.90
2008,09,25,08,41,10.90
2008,09,25,08,42,11.00
2008,09,25,08,43,11.10
2008,09,25,08,44,11.10
2008,09,25,08,45,11.10
2008,09,25,08,46,11.10
2008,09,25,08,47,11.10
2008,09,25,08,48,11.10
2008,09,25,08,49,11.10
2008,09,25,08,50,11.10
2008,09,25,08,51,11.10
2008,09,25,08,52,11.10
2008,09,25,08,53,11.10
2008,09,25,08,54,11.10
2008,09,25,08,55,11.10
2008,09,25,08,56,11.20
2008,09,25,08,57,11.20
2008,09,25,08,58,11.20
2008,09,25,08,59,11.20
2008,09,25,09,00,11.20
2008,09,25,09,01,11.20
2008,09,25,09,02,11.20
2008,09,25,09,03,11.20
2008,09,25,09,04,11.20
2008,09,25,09,05,11.20
2008,09,25,09,06,11.20
2008,09,25,09,07,11.20
2008,09,25,09,08,11.30
2008,09,25,09,09,11.30
2008,09,25,09,10,11.30
2008,09,25,09,11,11.30
2008,09,25,09,12,11.30
2008,09,25,09,13,11.40
2008,09,25,09,14,11.40
2008,09,25,09,15,11.40
2008,09,25,09,16,11.40
2008,09,25,09,17,11.40
2008,09,25,09,18,11.40
2008,09,25,09,19,11.40
2008,09,25,09,20,11.40
2008,09,25,09,21,11.50
2008,09,25,09,22,11.60
2008,09,25,09,23,11.60
2008,09,25,09,24,11.50
2008,09,25,09,25,11.40
2008,09,25,09,26,11.40
2008,09,25,09,27,11.50
2008,09,25,09,28,11.60
2008,09,25,09,29,11.60
2008,09,25,09,30,11.60
2008,09,25,09,31,11.50
2008,09,25,09,32,11.40
2008,09,25,09,33,11.40
2008,09,25,09,34,11.40
2008,09,25,09,35,11.40
2008,09,25,09,36,11.40
2008,09,25,09,37,11.40
2008,09,25,09,38,11.40
2008,09,25,09,39,11.40
2008,09,25,09,40,11.30
2008,09,25,09,41,11.30
2008,09,25,09,42,11.30
2008,09,25,09,43,11.30
2008,09,25,09,44,11.30
2008,09,25,09,45,11.30
2008,09,25,09,46,11.30
2008,09,25,09,47,11.30
2008,09,25,09,48,11.30
2008,09,25,09,49,11.30
2008,09,25,09,50,11.30
2008,09,25,09,51,11.30
2008,09,25,09,52,11.20
2008,09,25,09,53,11.20
2008,09,25,09,54,11.20
2008,09,25,09,55,11.20
2008,09,25,09,56,11.20
2008,09,25,09,57,11.20
2008,09,25,09,58,11.20
2008,09,25,09,59,11.10
2008,09,25,10,00,11.10
2008,09,25,10,01,11.10
2008,09,25,10,02,11.10
2008,09,25,10,03,11.20
2008,09,25,10,04,11.20
2008,09,25,10,05,11.20
2008,09,25,10,06,11.20
2008,09,25,10,07,11.20
2008,09,25,10,08,11.20
2008,09,25,10,09,11.20
2008,09,25,10,10,11.30
2008,09,25,10,11,11.30
2008,09,25,10,12,11.30
2008,09,25,10,13,11.30
2008,09,25,10,14,11.30
2008,09,25,10,15,11.30
2008,09,25,10,16,11.30
2008,09,25,10,17,11.30
2008,09,25,10,18,11.30
2008,09,25,10,19,11.30
2008,09,25,10,20,11.30
2008,09,25,10,21,11.30
2008,09,25,10,22,11.30
2008,09,25,10,23,11.30
2008,09,25,10,24,11.30
2008,09,25,10,25,11.30
2008,09,25,10,26,11.30
2008,09,25,10,27,11.30
2008,09,25,10,28,11.30
2008,09,25,10,29,11.30
2008,09,25,10,30,11.30
2008,09,25,10,31,11.30
2008,09,25,10,32,11.30
2008,09,25,10,33,11.30
2008,09,25,10,34,11.30
2008,09,25,10,35,11.30
2008,09,25,10,36,11.30
2008,09,25,10,37,11.30
2008,09,25,10,38,11.30
2008,09,25,10,39,11.30
2008,09,25,10,40,11.30
2008,09,25,10,41,11.30
2008,09,25,10,42,11.30
2008,09,25,10,43,11.30
2008,09,25,10,44,11.30
2008,09,25,10,45,11.30
2008,09,25,10,46,11.30
2008,09,25,10,47,11.30
2008,09,25,10,48,11.30
2008,09,25,10,49,11.30
2008,09,25,10,50,11.30
2008,09,25,10,51,11.30
2008,09,25,10,52,11.30
2008,09,25,10,53,11.30
2008,09,25,10,54,11.30
2008,09,25,10,55,11.30
2008,09,25,10,56,11.30
2008,09,25,10,57,11.40
2008,09,25,10,58,11.40
2008,09,25,10,59,11.40
2008,09,25,11,00,11.40
2008,09,25,11,01,11.40
2008,09,25,11,02,11.40
2008,09,25,11,03,11.50
2008,09,25,11,04,11.60
2008,09,25,11,05,11.60
2008,09,25,11,06,11.60
2008,09,25,11,07,11.60
2008,09,25,11,08,11.60
2008,09,25,11,09,11.60
2008,09,25,11,10,11.70
2008,09,25,11,11,11.70
2008,09,25,11,12,11.80
2008,09,25,11,13,11.80
2008,09,25,11,14,11.80
2008,09,25,11,15,11.80
2008,09,25,11,16,11.80
2008,09,25,11,17,11.90
2008,09,25,11,18,11.90
2008,09,25,11,19,11.90
2008,09,25,11,20,11.90
2008,09,25,11,21,12.00
2008,09,25,11,22,12.00
2008,09,25,11,23,12.10
2008,09,25,11,24,12.20
2008,09,25,11,25,12.30
2008,09,25,11,26,12.40
2008,09,25,11,27,12.40
2008,09,25,11,28,12.30
2008,09,25,11,29,12.30
2008,09,25,11,30,12.40
2008,09,25,11,31,12.50
2008,09,25,11,32,12.60
2008,09,25,11,33,12.60
2008,09,25,11,34,12.70
2008,09,25,11,35,12.80
2008,09,25,11,36,12.80
2008,09,25,11,37,12.90
2008,09,25,11,38,12.90
2008,09,25,11,39,13.00
2008,09,25,11,40,13.00
2008,09,25,11,41,13.00
2008,09,25,11,42,13.10
2008,09,25,11,43,13.10
2008,09,25,11,44,13.00
2008,09,25,11,45,13.00
2008,09,25,11,46,13.00
2008,09,25,11,47,13.00
2008,09,25,11,48,13.00
2008,09,25,11,49,13.00
2008,09,25,11,50,13.00
2008,09,25,11,51,13.00
2008,09,25,11,52,13.00
2008,09,25,11,53,13.00
2008,09,25,11,54,13.00
2008,09,25,11,55,13.00
2008,09,25,11,56,13.00
2008,09,25,11,57,13.00
2008,09,25,11,58,13.10
2008,09,25,11,59,13.20
2008,09,25,12,00,13.20
2008,09,25,12,01,13.20
2008,09,25,12,02,13.30
2008,09,25,12,03,13.30
2008,09,25,12,04,13.30
2008,09,25,12,05,13.30
2008,09,25,12,06,13.30
2008,09,25,12,07,13.40
2008,09,25,12,08,13.40
2008,09,25,12,09,13.50
2008,09,25,12,10,13.50
2008,09,25,12,11,13.50
2008,09,25,12,12,13.50
2008,09,25,12,13,13.60
2008,09,25,12,14,13.60
2008,09,25,12,15,13.50
2008,09,25,12,16,13.50
2008,09,25,12,17,13.50
2008,09,25,12,18,13.50
2008,09,25,12,19,13.60
2008,09,25,12,20,13.60
2008,09,25,12,21,13.60
2008,09,25,12,22,13.70
2008,09,25,12,23,13.70
2008,09,25,12,24,13.70
2008,09,25,12,25,13.80
2008,09,25,12,26,13.80
2008,09,25,12,27,13.90
2008,09,25,12,28,14.00
2008,09,25,12,29,14.00
2008,09,25,12,30,14.00
2008,09,25,12,31,14.00
2008,09,25,12,32,14.10
2008,09,25,12,33,14.20
2008,09,25,12,34,14.20
2008,09,25,12,35,14.20
2008,09,25,12,36,14.20
2008,09,25,12,37,14.20
2008,09,25,12,38,14.10
2008,09,25,12,39,14.10
2008,09,25,12,40,14.20
2008,09,25,12,41,14.20
2008,09,25,12,42,14.20
2008,09,25,12,43,14.20
2008,09,25,12,44,14.30
2008,09,25,12,45,14.40
2008,09,25,12,46,14.40
2008,09,25,12,47,14.50
2008,09,25,12,48,14.50
2008,09,25,12,49,14.60
2008,09,25,12,50,14.70
2008,09,25,12,51,14.70
2008,09,25,12,52,14.80
2008,09,25,12,53,14.80
2008,09,25,12,54,14.80
2008,09,25,12,55,14.80
2008,09,25,12,56,14.90
2008,09,25,12,57,15.00
2008,09,25,12,58,15.00
2008,09,25,12,59,15.00
2008,09,25,13,00,15.10
2008,09,25,13,01,15.10
2008,09,25,13,02,15.10
2008,09,25,13,03,15.10
2008,09,25,13,04,15.10
2008,09,25,13,05,15.10
2008,09,25,13,06,15.00
2008,09,25,13,07,14.90
2008,09,25,13,08,15.00
2008,09,25,13,09,15.10
2008,09,25,13,10,15.10
2008,09,25,13,11,15.10
2008,09,25,13,12,15.20
2008,09,25,13,13,15.20
2008,09,25,13,14,15.20
2008,09,25,13,15,15.20
2008,09,25,13,16,15.20
2008,09,25,13,17,15.20
2008,09,25,13,18,15.10
2008,09,25,13,19,15.10
2008,09,25,13,20,15.10
2008,09,25,13,21,15.00
2008,09,25,13,22,15.00
2008,09,25,13,23,15.00
2008,09,25,13,24,15.00
2008,09,25,13,25,15.00
2008,09,25,13,26,15.00
2008,09,25,13,27,15.10
2008,09,25,13,28,15.10
2008,09,25,13,29,15.10
2008,09,25,13,30,15.10
2008,09,25,13,31,15.10
2008,09,25,13,32,15.10
2008,09,25,13,33,15.10
2008,09,25,13,34,15.00
2008,09,25,13,35,15.00
2008,09,25,13,36,15.00
2008,09,25,13,37,15.00
2008,09,25,13,38,15.10
2008,09,25,13,39,15.10
2008,09,25,13,40,15.10
2008,09,25,13,41,15.10
2008,09,25,13,42,15.00
2008,09,25,13,43,15.00
2008,09,25,13,44,15.00
2008,09,25,13,45,15.00
2008,09,25,13,46,15.00
2008,09,25,13,47,15.10
2008,09,25,13,48,15.10
2008,09,25,13,49,15.10
2008,09,25,13,50,15.00
2008,09,25,13,51,15.00
2008,09,25,13,52,15.00
2008,09,25,13,53,15.00
2008,09,25,13,54,15.00
2008,09,25,13,55,14.90
2008,09,25,13,56,14.80
2008,09,25,13,57,14.80
2008,09,25,13,58,14.80
2008,09,25,13,59,14.70
2008,09,25,14,00,14.60
2008,09,25,14,01,14.60
2008,09,25,14,02,14.50
2008,09,25,14,03,14.50
2008,09,25,14,04,14.50
2008,09,25,14,05,14.40
2008,09,25,14,06,14.40
2008,09,25,14,07,14.40
2008,09,25,14,08,14.40
2008,09,25,14,09,14.30
2008,09,25,14,10,14.20
2008,09,25,14,11,14.10
2008,09,25,14,12,14.00
2008,09,25,14,13,13.90
2008,09,25,14,14,13.80
2008,09,25,14,15,13.70
2008,09,25,14,16,13.60
2008,09,25,14,17,13.60
2008,09,25,14,18,13.60
2008,09,25,14,19,13.50
2008,09,25,14,20,13.50
2008,09,25,14,21,13.40
2008,09,25,14,22,13.40
2008,09,25,14,23,13.30
2008,09,25,14,24,13.30
2008,09,25,14,25,13.40
2008,09,25,14,26,13.40
2008,09,25,14,27,13.40
2008,09,25,14,28,13.40
2008,09,25,14,29,13.50
2008,09,25,14,30,13.50
2008,09,25,14,31,13.60
2008,09,25,14,32,13.60
2008,09,25,14,33,13.70
2008,09,25,14,34,13.70
2008,09,25,14,35,13.70
2008,09,25,14,36,13.60
2008,09,25,14,37,13.50
2008,09,25,14,38,13.40
2008,09,25,14,39,13.30
2008,09,25,14,40,13.30
2008,09,25,14,41,13.30
2008,09,25,14,42,13.30
2008,09,25,14,43,13.30
2008,09,25,14,44,13.30
2008,09,25,14,45,13.30
2008,09,25,14,46,13.30
2008,09,25,14,47,13.30
2008,09,25,14,48,13.30
2008,09,25,14,49,13.30
2008,09,25,14,50,13.30
2008,09,25,14,51,13.30
2008,09,25,14,52,13.30
2008,09,25,14,53,13.20
2008,09,25,14,54,13.20
2008,09,25,14,55,13.30
2008,09,25,14,56,13.30
2008,09,25,14,57,13.30
2008,09,25,14,58,13.30
2008,09,25,14,59,13.30
2008,09,25,15,00,13.30
2008,09,25,15,01,13.30
2008,09,25,15,02,13.40
2008,09,25,15,03,13.50
2008,09,25,15,04,13.50
2008,09,25,15,05,13.60
2008,09,25,15,06,13.70
2008,09,25,15,07,13.70
2008,09,25,15,08,13.80
2008,09,25,15,09,13.90
2008,09,25,15,10,14.00
2008,09,25,15,11,14.20
2008,09,25,15,12,14.30
2008,09,25,15,13,14.30
2008,09,25,15,14,14.30
2008,09,25,15,15,14.20
2008,09,25,15,16,14.20
2008,09,25,15,17,14.20
2008,09,25,15,18,14.20
2008,09,25,15,19,14.30
2008,09,25,15,20,14.30
2008,09,25,15,21,14.40
2008,09,25,15,22,14.40
2008,09,25,15,23,14.40
2008,09,25,15,24,14.50
2008,09,25,15,25,14.60
2008,09,25,15,26,14.60
2008,09,25,15,27,14.60
2008,09,25,15,28,14.70
2008,09,25,15,29,14.80
2008,09,25,15,30,14.80
2008,09,25,15,31,14.80
2008,09,25,15,32,14.80
2008,09,25,15,33,14.80
2008,09,25,15,34,14.80
2008,09,25,15,35,14.80
2008,09,25,15,36,14.80
2008,09,25,15,37,14.80
2008,09,25,15,38,14.80
2008,09,25,15,39,14.80
2008,09,25,15,40,14.80
2008,09,25,15,41,14.80
2008,09,25,15,42,14.90
2008,09,25,15,43,14.90
2008,09,25,15,44,14.90
2008,09,25,15,45,14.90
2008,09,25,15,46,14.90
2008,09,25,15,47,14.90
2008,09,25,15,48,14.90
2008,09,25,15,49,14.90
2008,09,25,15,50,14.90
2008,09,25,15,51,14.80
2008,09,25,15,52,14.80
2008,09,25,15,53,14.80
2008,09,25,15,54,14.80
2008,09,25,15,55,14.80
2008,09,25,15,56,14.80
2008,09,25,15,57,14.80
2008,09,25,15,58,14.80
2008,09,25,15,59,14.70
2008,09,25,16,00,14.70
2008,09,25,16,01,14.70
2008,09,25,16,02,14.70
2008,09,25,16,03,14.70
2008,09,25,16,04,14.70
2008,09,25,16,05,14.70
2008,09,25,16,06,14.70
2008,09,25,16,07,14.70
2008,09,25,16,08,14.80
2008,09,25,16,09,14.80
2008,09,25,16,10,14.90
2008,09,25,16,11,14.90
2008,09,25,16,12,14.90
2008,09,25,16,13,15.00
2008,09,25,16,14,15.00
2008,09,25,16,15,15.00
2008,09,25,16,16,15.00
2008,09,25,16,17,15.00
2008,09,25,16,18,15.00
2008,09,25,16,19,14.90
2008,09,25,16,20,14.90
2008,09,25,16,21,14.80
2008,09,25,16,22,14.80
2008,09,25,16,23,14.80
2008,09,25,16,24,14.70
2008,09,25,16,25,14.70
2008,09,25,16,26,14.60
2008,09,25,16,27,14.60
2008,09,25,16,28,14.50
2008,09,25,16,29,14.50
2008,09,25,16,30,14.50
2008,09,25,16,31,14.40
2008,09,25,16,32,14.40
2008,09,25,16,33,14.40
2008,09,25,16,34,14.30
2008,09,25,16,35,14.30
2008,09,25,16,36,14.20
2008,09,25,16,37,14.20
2008,09,25,16,38,14.20
2008,09,25,16,39,14.20
2008,09,25,16,40,14.20
2008,09,25,16,41,14.20
2008,09,25,16,42,14.20
2008,09,25,16,43,14.10
2008,09,25,16,44,14.10
2008,09,25,16,45,14.10
2008,09,25,16,46,14.10
2008,09,25,16,47,14.10
2008,09,25,16,48,14.10
2008,09,25,16,49,14.10
2008,09,25,16,50,14.10
2008,09,25,16,51,14.10
2008,09,25,16,52,14.10
2008,09,25,16,53,14.10
2008,09,25,16,54,14.20
2008,09,25,16,55,14.20
2008,09,25,16,56,14.20
2008,09,25,16,57,14.20
2008,09,25,16,58,14.10
2008,09,25,16,59,14.10
2008,09,25,17,00,14.10
2008,09,25,17,01,14.20
2008,09,25,17,02,14.20
2008,09,25,17,03,14.20
2008,09,25,17,04,14.20
2008,09,25,17,05,14.20
2008,09,25,17,06,14.10
2008,09,25,17,07,14.00
2008,09,25,17,08,14.00
2008,09,25,17,09,14.00
2008,09,25,17,10,14.00
2008,09,25,17,11,14.00
2008,09,25,17,12,14.00
2008,09,25,17,13,13.90
2008,09,25,17,14,13.90
2008,09,25,17,15,13.90
2008,09,25,17,16,13.90
2008,09,25,17,17,13.90
2008,09,25,17,18,13.90
2008,09,25,17,19,13.90
2008,09,25,17,20,13.90
2008,09,25,17,21,14.00
2008,09,25,17,22,14.00
2008,09,25,17,23,14.00
2008,09,25,17,24,14.00
2008,09,25,17,25,14.00
2008,09,25,17,26,14.10
2008,09,25,17,27,14.10
2008,09,25,17,28,14.10
2008,09,25,17,29,14.10
2008,09,25,17,30,14.10
2008,09,25,17,31,14.10
2008,09,25,17,32,14.10
2008,09,25,17,33,14.10
2008,09,25,17,34,14.10
2008,09,25,17,35,14.10